time, Switch, Flow(0), Analog(2)
yyyy/mm/dd HH:MM:SS.fff, True=FILTERED|False=TOTAL, L/min, V
2023/06/24 07:00:02.264, True, 4.718, 0.118944
2023/06/24 07:00:02.768, True, 4.646, 0.122225
2023/06/24 07:00:03.272, True, 4.638, 0.121691
2023/06/24 07:00:03.776, True, 3.979, 0.122988
2023/06/24 07:00:04.272, True, 3.034, 0.121843
2023/06/24 07:00:04.776, True, 2.320, 0.121157
2023/06/24 07:00:05.280, True, 1.990, 0.121691
2023/06/24 07:00:05.776, True, 1.685, 0.122148
2023/06/24 07:00:06.280, True, 1.990, 0.123598
2023/06/24 07:00:06.784, True, 1.661, 0.121538
2023/06/24 07:00:07.280, True, 2.018, 0.122148
2023/06/24 07:00:07.784, True, 1.990, 0.123369
2023/06/24 07:00:08.288, True, 1.658, 0.121996
2023/06/24 07:00:08.784, True, 2.025, 0.124285
2023/06/24 07:00:09.288, True, 1.986, 0.121614
2023/06/24 07:00:09.792, True, 1.661, 0.121233
2023/06/24 07:00:10.287, True, 2.018, 0.121233
2023/06/24 07:00:10.792, True, 1.658, 0.121691
2023/06/24 07:00:11.296, True, 1.993, 0.119631
2023/06/24 07:00:11.792, True, 1.682, 0.121920
2023/06/24 07:00:12.296, True, 1.990, 0.120775
2023/06/24 07:00:12.800, True, 1.990, 0.120165
2023/06/24 07:00:13.296, True, 2.021, 0.121767
2023/06/24 07:00:13.800, True, 1.990, 0.121767
2023/06/24 07:00:14.304, True, 1.990, 0.122530
2023/06/24 07:00:14.800, True, 1.685, 0.121996
2023/06/24 07:00:15.304, True, 1.990, 0.120241
2023/06/24 07:00:15.808, True, 1.993, 0.121080
2023/06/24 07:00:16.304, True, 1.682, 0.120928
2023/06/24 07:00:16.808, True, 1.989, 0.119097
2023/06/24 07:00:17.312, True, 1.990, 0.120699
2023/06/24 07:00:17.808, True, 2.022, 0.122683
2023/06/24 07:00:18.312, True, 1.990, 0.119554
2023/06/24 07:00:18.816, True, 1.658, 0.120699
2023/06/24 07:00:19.312, True, 2.023, 0.120851
2023/06/24 07:00:19.816, True, 1.657, 0.121462
2023/06/24 07:00:20.320, True, 1.659, 0.123064
2023/06/24 07:00:20.816, True, 2.021, 0.122759
2023/06/24 07:00:21.320, True, 1.990, 0.122606
2023/06/24 07:00:21.824, True, 1.659, 0.120470
2023/06/24 07:00:22.320, True, 2.020, 0.121691
2023/06/24 07:00:22.824, True, 1.990, 0.122911
2023/06/24 07:00:23.328, True, 1.990, 0.121233
2023/06/24 07:00:23.824, True, 2.022, 0.122606
2023/06/24 07:00:24.328, True, 1.658, 0.118715
2023/06/24 07:00:24.832, True, 1.991, 0.120012
2023/06/24 07:00:25.336, True, 1.988, 0.120546
2023/06/24 07:00:25.832, True, 1.684, 0.121843
2023/06/24 07:00:26.336, True, 1.992, 0.121614
2023/06/24 07:00:26.840, True, 1.656, 0.122606
2023/06/24 07:00:27.336, True, 2.022, 0.122988
2023/06/24 07:00:27.840, True, 1.989, 0.122530
2023/06/24 07:00:28.344, True, 1.658, 0.124056
2023/06/24 07:00:28.840, True, 2.022, 0.121538
2023/06/24 07:00:29.344, True, 1.660, 0.123140
2023/06/24 07:00:29.848, True, 1.987, 0.119936
2023/06/24 07:00:30.344, True, 2.022, 0.121538
2023/06/24 07:00:30.848, True, 1.989, 0.121233
2023/06/24 07:00:31.352, True, 1.658, 0.122148
2023/06/24 07:00:31.848, True, 2.022, 0.121462
2023/06/24 07:00:32.352, True, 1.990, 0.120394
2023/06/24 07:00:32.856, True, 1.990, 0.121386
2023/06/24 07:00:33.352, True, 2.022, 0.122835
2023/06/24 07:00:33.856, True, 1.990, 0.119707
2023/06/24 07:00:34.360, True, 1.658, 0.121920
2023/06/24 07:00:34.856, True, 2.022, 0.122683
2023/06/24 07:00:35.360, True, 1.990, 0.122225
2023/06/24 07:00:35.864, True, 1.989, 0.121309
2023/06/24 07:00:36.360, True, 1.685, 0.121920
2023/06/24 07:00:36.864, True, 1.990, 0.122148
2023/06/24 07:00:37.360, True, 1.685, 0.124132
2023/06/24 07:00:37.864, True, 1.989, 0.124132
2023/06/24 07:00:38.368, True, 1.992, 0.123598
2023/06/24 07:00:38.864, True, 1.683, 0.125353
2023/06/24 07:00:39.368, True, 1.990, 0.124437
2023/06/24 07:00:39.872, True, 1.991, 0.126497
2023/06/24 07:00:40.375, True, 1.988, 0.126345
2023/06/24 07:00:40.872, True, 1.686, 0.123674
2023/06/24 07:00:41.376, True, 1.988, 0.123903
2023/06/24 07:00:41.880, True, 1.658, 0.126497
2023/06/24 07:00:42.376, True, 2.022, 0.124208
2023/06/24 07:00:42.880, True, 1.993, 0.127718
2023/06/24 07:00:43.384, True, 1.986, 0.127642
2023/06/24 07:00:43.880, True, 1.685, 0.126421
2023/06/24 07:00:44.384, True, 1.990, 0.128405
2023/06/24 07:00:44.888, True, 1.658, 0.125734
2023/06/24 07:00:45.384, True, 2.024, 0.127108
2023/06/24 07:00:45.888, True, 1.988, 0.129778
2023/06/24 07:00:46.392, True, 1.992, 0.129320
2023/06/24 07:00:46.888, True, 2.019, 0.128023
2023/06/24 07:00:47.392, True, 1.992, 0.128710
2023/06/24 07:00:47.896, True, 1.655, 0.129702
2023/06/24 07:00:48.392, True, 2.022, 0.131151
2023/06/24 07:00:48.896, True, 1.993, 0.127642
2023/06/24 07:00:49.392, True, 1.685, 0.132448
2023/06/24 07:00:49.896, True, 1.986, 0.132448
2023/06/24 07:00:50.400, True, 1.658, 0.130541
2023/06/24 07:00:50.895, True, 2.025, 0.131762
2023/06/24 07:00:51.400, True, 1.655, 0.132372
2023/06/24 07:00:51.904, True, 1.990, 0.131762
2023/06/24 07:00:52.400, True, 1.686, 0.131533
2023/06/24 07:00:52.904, True, 1.990, 0.133822
2023/06/24 07:00:53.408, True, 1.987, 0.132448
2023/06/24 07:00:53.904, True, 1.686, 0.132601
2023/06/24 07:00:54.408, True, 1.989, 0.132830
2023/06/24 07:00:54.912, True, 1.989, 0.132372
2023/06/24 07:00:55.408, True, 1.685, 0.133745
2023/06/24 07:00:55.912, True, 1.991, 0.134051
2023/06/24 07:00:56.416, True, 1.988, 0.132601
2023/06/24 07:00:56.912, True, 1.686, 0.132982
2023/06/24 07:00:57.416, True, 1.989, 0.134356
2023/06/24 07:00:57.920, True, 1.991, 0.134737
2023/06/24 07:00:58.416, True, 2.020, 0.132448
2023/06/24 07:00:58.920, True, 1.661, 0.134432
2023/06/24 07:00:59.424, True, 1.986, 0.135195
2023/06/24 07:00:59.920, True, 2.022, 0.135653
2023/06/24 07:01:00.424, True, 1.990, 0.135424
2023/06/24 07:01:00.928, True, 1.661, 0.134279
2023/06/24 07:01:01.424, True, 2.018, 0.134127
2023/06/24 07:01:01.928, True, 1.991, 0.134051
2023/06/24 07:01:02.432, True, 1.657, 0.133974
2023/06/24 07:01:02.928, True, 2.022, 0.135576
2023/06/24 07:01:03.432, True, 1.991, 0.133135
2023/06/24 07:01:03.936, True, 1.657, 0.134813
2023/06/24 07:01:04.432, True, 2.022, 0.135424
2023/06/24 07:01:04.936, True, 1.990, 0.132448
2023/06/24 07:01:05.432, True, 2.022, 0.133974
2023/06/24 07:01:05.936, True, 1.658, 0.134051
2023/06/24 07:01:06.440, True, 1.990, 0.132982
2023/06/24 07:01:06.944, True, 1.990, 0.133440
2023/06/24 07:01:07.440, True, 2.022, 0.135042
2023/06/24 07:01:07.944, True, 1.993, 0.134432
2023/06/24 07:01:08.440, True, 2.018, 0.135195
2023/06/24 07:01:08.944, True, 1.660, 0.134585
2023/06/24 07:01:09.448, True, 1.988, 0.133669
2023/06/24 07:01:09.944, True, 2.022, 0.135424
2023/06/24 07:01:10.448, True, 1.660, 0.133288
2023/06/24 07:01:10.952, True, 1.988, 0.135500
2023/06/24 07:01:11.448, True, 2.019, 0.134585
2023/06/24 07:01:11.952, True, 1.659, 0.135119
2023/06/24 07:01:12.456, True, 1.989, 0.134737
2023/06/24 07:01:12.952, True, 2.021, 0.134890
2023/06/24 07:01:13.456, True, 1.659, 0.133745
2023/06/24 07:01:13.960, True, 1.990, 0.132143
2023/06/24 07:01:14.456, True, 1.683, 0.133288
2023/06/24 07:01:14.959, True, 1.989, 0.134661
2023/06/24 07:01:15.464, True, 1.658, 0.135424
2023/06/24 07:01:15.960, True, 2.022, 0.133440
2023/06/24 07:01:16.464, True, 1.990, 0.133745
2023/06/24 07:01:16.968, True, 1.658, 0.135271
2023/06/24 07:01:17.464, True, 1.685, 0.134356
2023/06/24 07:01:17.968, True, 1.990, 0.132448
2023/06/24 07:01:18.472, True, 1.990, 0.134127
2023/06/24 07:01:18.968, True, 1.685, 0.134279
2023/06/24 07:01:19.472, True, 1.989, 0.135500
2023/06/24 07:01:19.976, True, 1.990, 0.136187
2023/06/24 07:01:20.472, True, 1.685, 0.133974
2023/06/24 07:01:20.976, True, 1.991, 0.134051
2023/06/24 07:01:21.480, True, 1.657, 0.133135
2023/06/24 07:01:21.976, True, 2.023, 0.134966
2023/06/24 07:01:22.480, True, 1.989, 0.133974
2023/06/24 07:01:22.984, True, 1.658, 0.133440
2023/06/24 07:01:23.480, True, 2.021, 0.133974
2023/06/24 07:01:23.983, True, 1.658, 0.133288
2023/06/24 07:01:24.488, True, 1.990, 0.135958
2023/06/24 07:01:24.984, True, 1.685, 0.132906
2023/06/24 07:01:25.488, True, 1.993, 0.133440
2023/06/24 07:01:25.992, True, 1.656, 0.134585
2023/06/24 07:01:26.488, True, 2.021, 0.134432
2023/06/24 07:01:26.992, True, 1.990, 0.134585
2023/06/24 07:01:27.496, True, 1.658, 0.134813
2023/06/24 07:01:27.992, True, 2.022, 0.134127
2023/06/24 07:01:28.496, True, 1.990, 0.134966
2023/06/24 07:01:28.992, True, 2.022, 0.136110
2023/06/24 07:01:29.496, True, 1.658, 0.135424
2023/06/24 07:01:30.000, True, 1.989, 0.134966
2023/06/24 07:01:30.496, True, 2.022, 0.134051
2023/06/24 07:01:31.000, True, 1.989, 0.134661
2023/06/24 07:01:31.504, True, 1.990, 0.136187
2023/06/24 07:01:32.000, True, 1.685, 0.133059
2023/06/24 07:01:32.504, True, 1.990, 0.132219
2023/06/24 07:01:33.008, True, 1.990, 0.133974
2023/06/24 07:01:33.512, True, 1.990, 0.133059
2023/06/24 07:01:34.008, True, 1.685, 0.135271
2023/06/24 07:01:34.512, True, 1.992, 0.131151
2023/06/24 07:01:35.008, True, 1.683, 0.132677
2023/06/24 07:01:35.512, True, 1.989, 0.133440
2023/06/24 07:01:36.016, True, 1.991, 0.133516
2023/06/24 07:01:36.512, True, 1.684, 0.133211
2023/06/24 07:01:37.016, True, 1.990, 0.135805
2023/06/24 07:01:37.520, True, 1.990, 0.134813
2023/06/24 07:01:38.016, True, 1.685, 0.133059
2023/06/24 07:01:38.520, True, 1.990, 0.135042
2023/06/24 07:01:39.024, True, 1.990, 0.131609
2023/06/24 07:01:39.528, True, 1.993, 0.132448
2023/06/24 07:01:40.024, True, 1.682, 0.133745
2023/06/24 07:01:40.528, True, 1.990, 0.132753
2023/06/24 07:01:41.032, True, 1.990, 0.131533
2023/06/24 07:01:41.527, True, 2.022, 0.130388
2023/06/24 07:01:42.032, True, 1.990, 0.130846
2023/06/24 07:01:42.536, True, 1.658, 0.133440
2023/06/24 07:01:43.032, True, 2.022, 0.132525
2023/06/24 07:01:43.536, True, 1.989, 0.133745
2023/06/24 07:01:44.040, True, 1.993, 0.132448
2023/06/24 07:01:44.536, True, 1.682, 0.132372
2023/06/24 07:01:45.040, True, 1.989, 0.133745
2023/06/24 07:01:45.544, True, 1.659, 0.132830
2023/06/24 07:01:46.040, True, 2.022, 0.130617
2023/06/24 07:01:46.544, True, 1.988, 0.133059
2023/06/24 07:01:47.040, True, 2.022, 0.133440
2023/06/24 07:01:47.544, True, 1.990, 0.133822
2023/06/24 07:01:48.048, True, 1.658, 0.131914
2023/06/24 07:01:48.552, True, 1.991, 0.135119
2023/06/24 07:01:49.048, True, 2.022, 0.130922
2023/06/24 07:01:49.552, True, 1.989, 0.132601
2023/06/24 07:01:50.056, True, 1.658, 0.132143
2023/06/24 07:01:50.552, True, 2.024, 0.130312
2023/06/24 07:01:51.055, True, 1.987, 0.131838
2023/06/24 07:01:51.552, True, 2.022, 0.132906
2023/06/24 07:01:52.056, True, 1.992, 0.131991
2023/06/24 07:01:52.560, True, 1.656, 0.131304
2023/06/24 07:01:53.056, True, 2.022, 0.133593
2023/06/24 07:01:53.560, True, 1.990, 0.131456
2023/06/24 07:01:54.064, True, 1.990, 0.133364
2023/06/24 07:01:54.559, True, 1.685, 0.131914
2023/06/24 07:01:55.064, True, 1.992, 0.132601
2023/06/24 07:01:55.568, True, 1.987, 0.134432
2023/06/24 07:01:56.064, True, 1.684, 0.134127
2023/06/24 07:01:56.567, True, 1.990, 0.133059
2023/06/24 07:01:57.072, True, 1.990, 0.133135
2023/06/24 07:01:57.568, True, 2.022, 0.131685
2023/06/24 07:01:58.072, True, 1.989, 0.131838
2023/06/24 07:01:58.576, True, 1.990, 0.130617
2023/06/24 07:01:59.072, True, 1.685, 0.132372
2023/06/24 07:01:59.576, True, 1.990, 0.133135
2023/06/24 07:02:00.080, True, 1.993, 0.131991
2023/06/24 07:02:00.576, True, 1.681, 0.130770
2023/06/24 07:02:01.080, True, 1.990, 0.130770
2023/06/24 07:02:01.584, True, 1.989, 0.131762
2023/06/24 07:02:02.080, True, 1.686, 0.132448
2023/06/24 07:02:02.584, True, 1.988, 0.131685
2023/06/24 07:02:03.088, True, 1.658, 0.131456
2023/06/24 07:02:03.583, True, 2.022, 0.131380
2023/06/24 07:02:04.088, True, 1.990, 0.133898
2023/06/24 07:02:04.592, True, 1.990, 0.131685
2023/06/24 07:02:05.088, True, 1.685, 0.130846
2023/06/24 07:02:05.592, True, 1.990, 0.130007
2023/06/24 07:02:06.096, True, 1.658, 0.131609
2023/06/24 07:02:06.600, True, 1.990, 0.129320
2023/06/24 07:02:07.096, True, 1.685, 0.130236
2023/06/24 07:02:07.600, True, 1.990, 0.129473
2023/06/24 07:02:08.104, True, 1.990, 0.127947
2023/06/24 07:02:08.600, True, 1.685, 0.132143
2023/06/24 07:02:09.104, True, 1.990, 0.132296
2023/06/24 07:02:09.608, True, 1.992, 0.132296
2023/06/24 07:02:10.104, True, 2.019, 0.133974
2023/06/24 07:02:10.607, True, 1.990, 0.131914
2023/06/24 07:02:11.111, True, 1.990, 0.132296
2023/06/24 07:02:11.608, True, 1.685, 0.130312
2023/06/24 07:02:12.111, True, 1.990, 0.130999
2023/06/24 07:02:12.615, True, 1.658, 0.130617
2023/06/24 07:02:13.119, True, 1.990, 0.131991
2023/06/24 07:02:13.615, True, 1.685, 0.131609
2023/06/24 07:02:14.120, True, 1.990, 0.132601
2023/06/24 07:02:14.616, True, 1.685, 0.131075
2023/06/24 07:02:15.119, True, 1.990, 0.132601
2023/06/24 07:02:15.623, True, 1.989, 0.130312
2023/06/24 07:02:16.120, True, 2.022, 0.131838
2023/06/24 07:02:16.624, True, 1.658, 0.129473
2023/06/24 07:02:17.127, True, 1.658, 0.129931
2023/06/24 07:02:17.624, True, 2.022, 0.132753
2023/06/24 07:02:18.128, True, 1.991, 0.130846
2023/06/24 07:02:18.632, True, 1.657, 0.129778
2023/06/24 07:02:19.128, True, 2.021, 0.129854
2023/06/24 07:02:19.632, True, 1.658, 0.129625
2023/06/24 07:02:20.136, True, 1.991, 0.131762
2023/06/24 07:02:20.632, True, 2.022, 0.129702
2023/06/24 07:02:21.136, True, 1.656, 0.131228
2023/06/24 07:02:21.640, True, 1.992, 0.131075
2023/06/24 07:02:22.136, True, 1.683, 0.128786
2023/06/24 07:02:22.640, True, 1.992, 0.132448
2023/06/24 07:02:23.143, True, 1.657, 0.131685
2023/06/24 07:02:23.640, True, 2.021, 0.131304
2023/06/24 07:02:24.144, True, 1.989, 0.130694
2023/06/24 07:02:24.648, True, 1.661, 0.131838
2023/06/24 07:02:25.143, True, 2.020, 0.129854
2023/06/24 07:02:25.647, True, 1.990, 0.130846
2023/06/24 07:02:26.152, True, 1.656, 0.131609
2023/06/24 07:02:26.648, True, 2.022, 0.129397
2023/06/24 07:02:27.152, True, 1.992, 0.127947
2023/06/24 07:02:27.656, True, 1.659, 0.129931
2023/06/24 07:02:28.152, True, 2.021, 0.131228
2023/06/24 07:02:28.656, True, 1.656, 0.129625
2023/06/24 07:02:29.160, True, 1.991, 0.130312
2023/06/24 07:02:29.656, True, 2.022, 0.130846
2023/06/24 07:02:30.160, True, 1.660, 0.129244
2023/06/24 07:02:30.663, True, 1.986, 0.130083
2023/06/24 07:02:31.160, True, 2.026, 0.130846
2023/06/24 07:02:31.664, True, 1.990, 0.131762
2023/06/24 07:02:32.168, True, 1.655, 0.130541
2023/06/24 07:02:32.672, True, 1.990, 0.131304
2023/06/24 07:02:33.168, True, 1.685, 0.131533
2023/06/24 07:02:33.672, True, 1.990, 0.128328
2023/06/24 07:02:34.176, True, 1.990, 0.130617
2023/06/24 07:02:34.680, True, 1.993, 0.131075
2023/06/24 07:02:35.175, True, 1.685, 0.130846
2023/06/24 07:02:35.680, True, 1.986, 0.132372
2023/06/24 07:02:36.184, True, 1.990, 0.130999
2023/06/24 07:02:36.680, True, 1.685, 0.131151
2023/06/24 07:02:37.184, True, 1.990, 0.130770
2023/06/24 07:02:37.680, True, 2.022, 0.129778
2023/06/24 07:02:38.184, True, 1.658, 0.128939
2023/06/24 07:02:38.687, True, 1.991, 0.129320
2023/06/24 07:02:39.192, True, 1.657, 0.130694
2023/06/24 07:02:39.688, True, 2.021, 0.130465
2023/06/24 07:02:40.192, True, 1.658, 0.130159
2023/06/24 07:02:40.688, True, 2.022, 0.130694
2023/06/24 07:02:41.192, True, 1.990, 0.130159
2023/06/24 07:02:41.696, True, 1.990, 0.129931
2023/06/24 07:02:42.192, True, 1.685, 0.127871
2023/06/24 07:02:42.696, True, 1.990, 0.130312
2023/06/24 07:02:43.200, True, 1.990, 0.130694
2023/06/24 07:02:43.704, True, 1.658, 0.127260
2023/06/24 07:02:44.200, True, 2.022, 0.127642
2023/06/24 07:02:44.704, True, 1.658, 0.129473
2023/06/24 07:02:45.208, True, 1.989, 0.128634
2023/06/24 07:02:45.704, True, 2.022, 0.129473
2023/06/24 07:02:46.208, True, 1.990, 0.129091
2023/06/24 07:02:46.704, True, 1.685, 0.129702
2023/06/24 07:02:47.208, True, 1.990, 0.128328
2023/06/24 07:02:47.712, True, 1.990, 0.130465
2023/06/24 07:02:48.208, True, 2.022, 0.128557
2023/06/24 07:02:48.712, True, 1.658, 0.128862
2023/06/24 07:02:49.216, True, 1.990, 0.129473
2023/06/24 07:02:49.712, True, 2.022, 0.127947
2023/06/24 07:02:50.216, True, 1.660, 0.129320
2023/06/24 07:02:50.720, True, 1.988, 0.129549
2023/06/24 07:02:51.216, True, 1.685, 0.127794
2023/06/24 07:02:51.720, True, 1.989, 0.128634
2023/06/24 07:02:52.224, True, 1.990, 0.130312
2023/06/24 07:02:52.720, True, 2.021, 0.127871
2023/06/24 07:02:53.224, True, 1.658, 0.128023
2023/06/24 07:02:53.728, True, 1.990, 0.128710
2023/06/24 07:02:54.224, True, 1.685, 0.130465
2023/06/24 07:02:54.728, True, 1.989, 0.129778
2023/06/24 07:02:55.232, True, 1.659, 0.128710
2023/06/24 07:02:55.728, True, 1.684, 0.128099
2023/06/24 07:02:56.232, True, 1.990, 0.127413
2023/06/24 07:02:56.736, True, 1.658, 0.129778
2023/06/24 07:02:57.232, True, 2.022, 0.129473
2023/06/24 07:02:57.736, True, 1.658, 0.129397
2023/06/24 07:02:58.240, True, 1.989, 0.129244
2023/06/24 07:02:58.736, True, 2.022, 0.128557
2023/06/24 07:02:59.240, True, 1.658, 0.127565
2023/06/24 07:02:59.744, True, 1.989, 0.128099
2023/06/24 07:03:00.240, True, 2.022, 0.128634
2023/06/24 07:03:00.744, True, 1.990, 0.127871
2023/06/24 07:03:01.240, True, 2.022, 0.129320
2023/06/24 07:03:01.744, True, 1.661, 0.128099
2023/06/24 07:03:02.248, True, 1.986, 0.127031
2023/06/24 07:03:02.752, True, 1.989, 0.129244
2023/06/24 07:03:03.248, True, 1.685, 0.130083
2023/06/24 07:03:03.752, True, 1.990, 0.128557
2023/06/24 07:03:04.256, True, 1.990, 0.127413
2023/06/24 07:03:04.752, True, 1.685, 0.126574
2023/06/24 07:03:05.256, True, 1.990, 0.129702
2023/06/24 07:03:05.752, True, 1.685, 0.127108
2023/06/24 07:03:06.256, True, 1.993, 0.126497
2023/06/24 07:03:06.760, True, 1.986, 0.127184
2023/06/24 07:03:07.263, True, 1.658, 0.128023
2023/06/24 07:03:07.760, True, 2.022, 0.128710
2023/06/24 07:03:08.264, True, 1.658, 0.128862
2023/06/24 07:03:08.760, True, 2.022, 0.127718
2023/06/24 07:03:09.264, True, 1.989, 0.126421
2023/06/24 07:03:09.768, True, 1.658, 0.127794
2023/06/24 07:03:10.272, True, 1.990, 0.129625
2023/06/24 07:03:10.768, True, 2.025, 0.125429
2023/06/24 07:03:11.272, True, 1.986, 0.126650
2023/06/24 07:03:11.776, True, 1.989, 0.128710
2023/06/24 07:03:12.272, True, 1.685, 0.125963
2023/06/24 07:03:12.776, True, 1.992, 0.128939
2023/06/24 07:03:13.280, True, 1.987, 0.126268
2023/06/24 07:03:13.776, True, 2.022, 0.127947
2023/06/24 07:03:14.280, True, 1.990, 0.126574
2023/06/24 07:03:14.776, True, 1.685, 0.128786
2023/06/24 07:03:15.280, True, 1.658, 0.127565
2023/06/24 07:03:15.783, True, 1.989, 0.126192
2023/06/24 07:03:16.280, True, 2.022, 0.127413
2023/06/24 07:03:16.783, True, 1.658, 0.127718
2023/06/24 07:03:17.288, True, 1.990, 0.125734
2023/06/24 07:03:17.784, True, 1.685, 0.127031
2023/06/24 07:03:18.288, True, 1.990, 0.128252
2023/06/24 07:03:18.792, True, 1.658, 0.127642
2023/06/24 07:03:19.296, True, 1.989, 0.127718
2023/06/24 07:03:19.792, True, 2.025, 0.125734
2023/06/24 07:03:20.296, True, 1.987, 0.125963
2023/06/24 07:03:20.800, True, 1.658, 0.127947
2023/06/24 07:03:21.296, True, 2.022, 0.129320
2023/06/24 07:03:21.800, True, 1.990, 0.127337
2023/06/24 07:03:22.296, True, 1.685, 0.128023
2023/06/24 07:03:22.800, True, 1.990, 0.127184
2023/06/24 07:03:23.304, True, 1.990, 0.125505
2023/06/24 07:03:23.800, True, 1.685, 0.128405
2023/06/24 07:03:24.304, True, 1.990, 0.127413
2023/06/24 07:03:24.808, True, 1.989, 0.127565
2023/06/24 07:03:25.304, True, 1.685, 0.127947
2023/06/24 07:03:25.808, True, 1.990, 0.127413
2023/06/24 07:03:26.312, True, 1.658, 0.127718
2023/06/24 07:03:26.808, True, 2.022, 0.126650
2023/06/24 07:03:27.312, True, 1.990, 0.129625
2023/06/24 07:03:27.816, True, 1.658, 0.128405
2023/06/24 07:03:28.312, True, 2.022, 0.126650
2023/06/24 07:03:28.816, True, 1.990, 0.127337
2023/06/24 07:03:29.320, True, 1.658, 0.126268
2023/06/24 07:03:29.816, True, 2.022, 0.127565
2023/06/24 07:03:30.320, True, 1.990, 0.127718
2023/06/24 07:03:30.824, True, 1.658, 0.128862
2023/06/24 07:03:31.320, True, 2.023, 0.126802
2023/06/24 07:03:31.824, True, 1.989, 0.125887
2023/06/24 07:03:32.320, True, 2.022, 0.127642
2023/06/24 07:03:32.824, True, 1.658, 0.127413
2023/06/24 07:03:33.328, True, 1.992, 0.127413
2023/06/24 07:03:33.824, True, 1.683, 0.126955
2023/06/24 07:03:34.328, True, 1.990, 0.126497
2023/06/24 07:03:34.832, True, 1.990, 0.126192
2023/06/24 07:03:35.328, True, 1.685, 0.126650
2023/06/24 07:03:35.832, True, 1.990, 0.127871
2023/06/24 07:03:36.336, True, 1.658, 0.127794
2023/06/24 07:03:36.840, True, 1.992, 0.125963
2023/06/24 07:03:37.336, True, 1.683, 0.127718
2023/06/24 07:03:37.840, True, 1.993, 0.128405
2023/06/24 07:03:38.344, True, 1.986, 0.126574
2023/06/24 07:03:38.840, True, 1.685, 0.127108
2023/06/24 07:03:39.344, True, 1.989, 0.127794
2023/06/24 07:03:39.848, True, 1.990, 0.125734
2023/06/24 07:03:40.344, True, 1.685, 0.126497
2023/06/24 07:03:40.848, True, 1.989, 0.125811
2023/06/24 07:03:41.344, True, 2.022, 0.126955
2023/06/24 07:03:41.848, True, 1.658, 0.125582
2023/06/24 07:03:42.352, True, 1.659, 0.129702
2023/06/24 07:03:42.848, True, 2.021, 0.127794
2023/06/24 07:03:43.352, True, 1.990, 0.127947
2023/06/24 07:03:43.856, True, 1.658, 0.124895
2023/06/24 07:03:44.352, True, 2.022, 0.127031
2023/06/24 07:03:44.856, True, 1.990, 0.123751
2023/06/24 07:03:45.360, True, 1.658, 0.126116
2023/06/24 07:03:45.856, True, 2.022, 0.128252
2023/06/24 07:03:46.359, True, 1.990, 0.126192
2023/06/24 07:03:46.864, True, 1.660, 0.127947
2023/06/24 07:03:47.360, True, 2.019, 0.128862
2023/06/24 07:03:47.864, True, 1.990, 0.126192
2023/06/24 07:03:48.360, True, 1.687, 0.125505
2023/06/24 07:03:48.864, True, 1.987, 0.127718
2023/06/24 07:03:49.367, True, 1.991, 0.127184
2023/06/24 07:03:49.871, True, 1.987, 0.127565
2023/06/24 07:03:50.367, True, 1.686, 0.125811
2023/06/24 07:03:50.871, True, 1.988, 0.126879
2023/06/24 07:03:51.376, True, 1.660, 0.126116
2023/06/24 07:03:51.871, True, 2.018, 0.126421
2023/06/24 07:03:52.375, True, 1.658, 0.126268
2023/06/24 07:03:52.880, True, 1.989, 0.127413
2023/06/24 07:03:53.384, True, 1.993, 0.123369
2023/06/24 07:03:53.879, True, 2.019, 0.127794
2023/06/24 07:03:54.384, True, 1.658, 0.123903
2023/06/24 07:03:54.888, True, 1.991, 0.126421
2023/06/24 07:03:55.384, True, 2.020, 0.127947
2023/06/24 07:03:55.888, True, 1.989, 0.124819
2023/06/24 07:03:56.392, True, 1.659, 0.126040
2023/06/24 07:03:56.888, True, 2.025, 0.125353
2023/06/24 07:03:57.392, True, 1.986, 0.124514
2023/06/24 07:03:57.896, True, 1.991, 0.126040
2023/06/24 07:03:58.392, True, 2.020, 0.124514
2023/06/24 07:03:58.896, True, 1.658, 0.125658
2023/06/24 07:03:59.392, True, 2.022, 0.125963
2023/06/24 07:03:59.895, True, 1.989, 0.126955
2023/06/24 07:04:00.400, True, 1.661, 0.125505
2023/06/24 07:04:00.896, True, 1.685, 0.126802
2023/06/24 07:04:01.400, True, 1.986, 0.126802
2023/06/24 07:04:01.904, True, 1.992, 0.124819
2023/06/24 07:04:02.399, True, 1.686, 0.126726
2023/06/24 07:04:02.904, True, 1.989, 0.126802
2023/06/24 07:04:03.408, True, 1.988, 0.125505
2023/06/24 07:04:03.904, True, 2.022, 0.126192
2023/06/24 07:04:04.408, True, 1.659, 0.125811
2023/06/24 07:04:04.912, True, 1.990, 0.127260
2023/06/24 07:04:05.408, True, 1.682, 0.125353
2023/06/24 07:04:05.911, True, 1.991, 0.124895
2023/06/24 07:04:06.416, True, 1.989, 0.126345
2023/06/24 07:04:06.912, True, 1.684, 0.125048
2023/06/24 07:04:07.416, True, 1.658, 0.127184
2023/06/24 07:04:07.920, True, 1.989, 0.124056
2023/06/24 07:04:08.416, True, 1.687, 0.125353
2023/06/24 07:04:08.920, True, 1.987, 0.124743
2023/06/24 07:04:09.424, True, 1.661, 0.125505
2023/06/24 07:04:09.920, True, 2.019, 0.126497
2023/06/24 07:04:10.424, True, 1.659, 0.124590
2023/06/24 07:04:10.928, True, 1.988, 0.125048
2023/06/24 07:04:11.423, True, 1.685, 0.127413